TimeCST,TemperatureF,Dew PointF,Humidity,Sea Level PressureIn,VisibilityMPH,Wind Direction,Wind SpeedMPH,Gust SpeedMPH,PrecipitationIn,Events,Conditions,WindDirDegrees,DateUTC
12:15 AM,32.0,26.6,80,29.96,10.0,NNW,16.1,20.7,N/A,,Clear,340,2013-12-14 06:15:00
12:35 AM,30.2,24.8,80,29.97,10.0,NNW,15.0,20.7,N/A,,Clear,340,2013-12-14 06:35:00
12:55 AM,30.2,24.8,80,29.98,10.0,NNW,17.3,-,N/A,,Clear,330,2013-12-14 06:55:00
1:15 AM,30.2,24.8,80,30.00,10.0,NNW,15.0,21.9,N/A,,Clear,330,2013-12-14 07:15:00
1:35 AM,30.2,24.8,80,30.00,10.0,NNW,16.1,-,N/A,,Scattered Clouds,340,2013-12-14 07:35:00
1:55 AM,28.4,24.8,86,30.02,10.0,NNW,16.1,-,N/A,,Mostly Cloudy,330,2013-12-14 07:55:00
2:15 AM,28.4,24.8,86,30.04,10.0,North,13.8,-,N/A,,Overcast,350,2013-12-14 08:15:00
2:35 AM,28.4,23.0,80,30.05,10.0,NNW,17.3,24.2,N/A,,Overcast,340,2013-12-14 08:35:00
2:55 AM,28.4,23.0,80,30.06,10.0,NNW,21.9,26.5,N/A,,Overcast,340,2013-12-14 08:55:00
3:15 AM,28.4,23.0,80,30.07,10.0,NNW,19.6,26.5,N/A,,Overcast,340,2013-12-14 09:15:00
3:35 AM,28.4,23.0,80,30.09,10.0,NNW,21.9,27.6,N/A,,Overcast,340,2013-12-14 09:35:00
3:55 AM,28.4,23.0,80,30.09,10.0,NNW,20.7,26.5,N/A,,Overcast,340,2013-12-14 09:55:00
4:15 AM,28.4,23.0,80,30.10,10.0,NNW,19.6,27.6,N/A,,Overcast,330,2013-12-14 10:15:00
4:35 AM,30.2,23.0,75,30.11,10.0,NNW,20.7,25.3,N/A,,Overcast,330,2013-12-14 10:35:00
4:55 AM,30.2,24.8,80,30.11,10.0,NNW,20.7,24.2,N/A,,Overcast,340,2013-12-14 10:55:00
5:15 AM,30.2,24.8,80,30.12,10.0,NNW,13.8,23.0,N/A,,Overcast,330,2013-12-14 11:15:00
5:35 AM,30.2,24.8,80,30.13,10.0,NNW,16.1,23.0,N/A,,Overcast,330,2013-12-14 11:35:00
5:55 AM,30.2,24.8,80,30.13,10.0,NNW,12.7,-,N/A,,Mostly Cloudy,330,2013-12-14 11:55:00
6:15 AM,28.4,23.0,80,30.13,10.0,NNW,13.8,19.6,N/A,,Mostly Cloudy,340,2013-12-14 12:15:00
6:35 AM,28.4,23.0,80,30.14,10.0,NNW,16.1,19.6,N/A,,Scattered Clouds,330,2013-12-14 12:35:00
6:55 AM,26.6,21.2,80,30.16,10.0,NNW,15.0,23.0,N/A,,Clear,330,2013-12-14 12:55:00
7:15 AM,26.6,21.2,80,30.17,10.0,NNW,15.0,20.7,N/A,,Clear,330,2013-12-14 13:15:00
7:35 AM,26.6,21.2,80,30.18,10.0,NNW,15.0,18.4,N/A,,Clear,340,2013-12-14 13:35:00
7:55 AM,24.8,21.2,86,30.19,10.0,NNW,12.7,18.4,N/A,,Mostly Cloudy,330,2013-12-14 13:55:00
8:15 AM,26.6,21.2,80,30.21,10.0,NNW,16.1,23.0,N/A,,Overcast,340,2013-12-14 14:15:00
8:35 AM,26.6,21.2,80,30.22,10.0,NNW,12.7,-,N/A,,Overcast,340,2013-12-14 14:35:00
8:55 AM,26.6,21.2,80,30.23,10.0,NNW,12.7,19.6,N/A,,Overcast,340,2013-12-14 14:55:00
9:15 AM,26.6,21.2,80,30.24,10.0,NNW,17.3,20.7,N/A,,Overcast,330,2013-12-14 15:15:00
9:35 AM,28.4,21.2,74,30.25,10.0,NNW,17.3,23.0,N/A,,Overcast,340,2013-12-14 15:35:00
9:55 AM,28.4,21.2,74,30.27,10.0,NNW,13.8,17.3,N/A,,Overcast,330,2013-12-14 15:55:00
10:15 AM,30.2,23.0,75,30.28,10.0,NNW,15.0,-,N/A,,Scattered Clouds,340,2013-12-14 16:15:00
10:35 AM,32.0,23.0,69,30.28,10.0,NNW,12.7,17.3,N/A,,Clear,330,2013-12-14 16:35:00
10:55 AM,32.0,23.0,69,30.28,10.0,NNW,13.8,-,N/A,,Clear,330,2013-12-14 16:55:00
11:15 AM,33.8,21.2,60,30.28,10.0,NNW,17.3,21.9,N/A,,Clear,330,2013-12-14 17:15:00
11:35 AM,35.6,19.4,52,30.28,10.0,NW,17.3,24.2,N/A,,Clear,320,2013-12-14 17:35:00
11:55 AM,37.4,19.4,48,30.28,10.0,NNW,15.0,21.9,N/A,,Clear,340,2013-12-14 17:55:00
12:15 PM,37.4,19.4,48,30.27,10.0,NNW,19.6,25.3,N/A,,Clear,340,2013-12-14 18:15:00
12:35 PM,41.0,19.4,42,30.27,10.0,NNW,12.7,18.4,N/A,,Clear,330,2013-12-14 18:35:00
12:55 PM,41.0,23.0,49,30.26,10.0,NW,16.1,25.3,N/A,,Clear,320,2013-12-14 18:55:00
1:15 PM,42.8,23.0,46,30.26,10.0,NW,16.1,19.6,N/A,,Clear,310,2013-12-14 19:15:00
1:35 PM,44.6,23.0,43,30.25,10.0,NW,13.8,-,N/A,,Clear,310,2013-12-14 19:35:00
1:55 PM,44.6,23.0,43,30.25,10.0,NNW,16.1,20.7,N/A,,Clear,330,2013-12-14 19:55:00
2:15 PM,46.4,23.0,40,30.25,10.0,NNW,15.0,19.6,N/A,,Clear,330,2013-12-14 20:15:00
2:35 PM,46.4,24.8,43,30.25,10.0,NNW,11.5,18.4,N/A,,Clear,330,2013-12-14 20:35:00
2:55 PM,46.4,24.8,43,30.25,10.0,NNW,11.5,19.6,N/A,,Clear,330,2013-12-14 20:55:00
3:15 PM,46.4,24.8,43,30.25,10.0,NNW,11.5,-,N/A,,Clear,340,2013-12-14 21:15:00
3:35 PM,48.2,24.8,40,30.25,10.0,NNW,13.8,-,N/A,,Clear,330,2013-12-14 21:35:00
3:55 PM,46.4,26.6,46,30.25,10.0,NNW,11.5,-,N/A,,Clear,330,2013-12-14 21:55:00
4:15 PM,46.4,26.6,46,30.24,10.0,NW,9.2,-,N/A,,Clear,320,2013-12-14 22:15:00
4:35 PM,46.4,26.6,46,30.24,10.0,NNW,8.1,-,N/A,,Clear,330,2013-12-14 22:35:00
4:55 PM,44.6,26.6,49,30.25,10.0,NNW,5.8,-,N/A,,Clear,330,2013-12-14 22:55:00
5:15 PM,42.8,26.6,53,30.25,10.0,NW,3.5,-,N/A,,Clear,320,2013-12-14 23:15:00
5:35 PM,42.8,26.6,53,30.25,10.0,Calm,Calm,-,N/A,,Clear,0,2013-12-14 23:35:00
5:55 PM,41.0,26.6,57,30.26,10.0,West,3.5,-,N/A,,Clear,260,2013-12-14 23:55:00
6:15 PM,42.8,26.6,53,30.25,10.0,Calm,Calm,-,N/A,,Clear,0,2013-12-15 00:15:00
6:35 PM,42.8,26.6,53,30.25,10.0,Calm,Calm,-,N/A,,Clear,0,2013-12-15 00:35:00
6:55 PM,35.6,24.8,65,30.26,10.0,SSW,9.2,-,N/A,,Clear,200,2013-12-15 00:55:00
7:15 PM,35.6,24.8,65,30.26,10.0,SW,6.9,-,N/A,,Clear,220,2013-12-15 01:15:00
7:35 PM,35.6,24.8,65,30.26,10.0,SW,9.2,-,N/A,,Clear,220,2013-12-15 01:35:00
7:55 PM,32.0,24.8,75,30.26,10.0,SSW,10.4,-,N/A,,Clear,210,2013-12-15 01:55:00
8:15 PM,33.8,24.8,70,30.26,10.0,SW,8.1,-,N/A,,Clear,230,2013-12-15 02:15:00
8:35 PM,32.0,24.8,75,30.27,10.0,SW,10.4,-,N/A,,Clear,230,2013-12-15 02:35:00
8:55 PM,32.0,24.8,75,30.27,10.0,SW,10.4,-,N/A,,Clear,220,2013-12-15 02:55:00
9:15 PM,32.0,23.0,69,30.27,10.0,SW,11.5,-,N/A,,Clear,220,2013-12-15 03:15:00
9:35 PM,32.0,23.0,69,30.27,10.0,SW,10.4,-,N/A,,Clear,220,2013-12-15 03:35:00
9:55 PM,32.0,23.0,69,30.27,10.0,SSW,10.4,-,N/A,,Clear,210,2013-12-15 03:55:00
10:15 PM,32.0,23.0,69,30.27,10.0,SW,10.4,-,N/A,,Clear,220,2013-12-15 04:15:00
10:35 PM,32.0,23.0,69,30.28,10.0,SW,10.4,-,N/A,,Clear,220,2013-12-15 04:35:00
10:55 PM,32.0,23.0,69,30.27,10.0,SSW,11.5,-,N/A,,Clear,210,2013-12-15 04:55:00
11:15 PM,30.2,23.0,75,30.27,10.0,SSW,10.4,-,N/A,,Clear,210,2013-12-15 05:15:00
11:35 PM,30.2,23.0,75,30.27,10.0,SW,10.4,-,N/A,,Clear,220,2013-12-15 05:35:00
11:55 PM,30.2,23.0,75,30.27,10.0,SW,10.4,-,N/A,,Clear,220,2013-12-15 05:55:00